Regional Weather Roundup
Issued by NWS

Home | Current Version | Previous Version | Graphics & Text | Print | Product List | Glossary On
Versions: 1 2 3 4 5 6 7 8 9 10 11 12 13 14 15 16 17 18 19 20 21 22 23 24 25 26 27 28 29 30 31 32 33 34 35 36 37 38 39 40 41 42 43 44 45 46 47 48 49 50
000
ASUS43 KMPX 282201
RWRMN
WEATHER ROUNDUP FOR MINNESOTA
NATIONAL WEATHER SERVICE TWIN CITIES/CHANHASSEN MN
400 PM CST SUN DEC 28 2014


NOTE: "FAIR" INDICATES FEW OR NO CLOUDS BELOW 12,000 FEET WITH NO
SIGNIFICANT WEATHER AND/OR OBSTRUCTIONS TO VISIBILITY. N/A MEANS
CURRENT SKY AND/OR WEATHER CONDITIONS ARE NOT AVAILABLE.

MNZ060>063-068>070-282300-
   Twin Cities Metro

CITY           SKY/WX    TMP DP  RH WIND       PRES   REMARKS
TWIN CITIES    CLOUDY    23  14  68 N6        30.21R WCI  16
ST PAUL        CLOUDY    23  14  68 N8        30.23R WCI  14
CRYSTAL        MOCLDY    22  10  60 NW6       30.21R WCI  14
BLAINE         PTCLDY    21  12  68 N8        30.21R WCI  12
LAKEVILLE      MOCLDY    19  16  86 E3        30.21R
EDEN PRAIRIE   CLOUDY    23  14  68 CALM      30.20R
SOUTH ST PAUL  CLOUDY    23  15  71 CALM      30.22R
LAKE ELMO      MOCLDY    23  14  68 N5        30.22R WCI  17
$$
MNZ001>005-007-008-013>017-022>024-027-028-282300-
   Northwest Minnesota

CITY           SKY/WX    TMP DP  RH WIND       PRES   REMARKS
BEMIDJI        CLEAR      5  -5  63 N5        30.25R WCI  -4
HALLOCK        CLEAR     -2  -9  71 NW13G18   30.38R WCI -21
ROSEAU         CLEAR      0  -8  71 W9          N/A  WCI -16
WARROAD        CLEAR      1  -8  66 W8        30.30R WCI -12
THIEF RVR FALL CLEAR     -2  -8  78 NW12      30.32S WCI -20
CROOKSTON      CLEAR     -2  -9  71 N13       30.38R WCI -21
FOSSTON        CLEAR      3  -8  60 NW6       30.30R WCI  -8
DETROIT LAKES  CLEAR      9   1  72 N10       30.26R WCI  -6
MOORHEAD       CLEAR      5   0  78 N15       30.33R WCI -13
PARK RAPIDS    CLEAR     12  -4  48 N9        30.22R WCI   0
MAHNOMEN       FAIR       3  -4  72 NE12      30.28R WCI -14
$$
MNZ006-009>011-018-025>026-282300-
   North Central Minnesota

CITY           SKY/WX    TMP DP  RH WIND       PRES   REMARKS
BAUDETTE       CLEAR     -1 -11  62 NW6       30.27R WCI -13
FLAG ISLAND    CLEAR     -2  -9  71 NW9       30.29R WCI -18
INTL FALLS     CLEAR      0  -9  65 W8        30.25R WCI -14
WASKISH        CLEAR      3  -2  78 CALM      30.27R
BIG FORK       CLEAR      7  -6  56 NW6       30.23R WCI  -3
LONGVILLE      CLEAR      7  -2  66 W6        30.24R WCI  -3
GRAND RAPIDS   CLEAR      7  -4  61 NW6       30.21R WCI  -3
CRANE LAKE     CLEAR      1  -8  66 NW3       30.25R
ORR            CLEAR      3  -8  60 NW7       30.19R WCI  -9
COOK           CLEAR      5  -6  61 NW7       30.22R WCI  -7
WALKER         FAIR       8  -3  60 N7        30.23R WCI  -3
$$
MNZ012-019>021-037-282300-
   Northeast Minnesota

CITY           SKY/WX    TMP DP  RH WIND       PRES   REMARKS
DULUTH         CLEAR     10  -4  53 NW6       30.18R WCI   0
ELY            CLEAR      3  -6  66 NW5       30.18R WCI  -6
HIBBING        CLEAR      7  -5  57 NW7       30.21R WCI  -5
EVELETH        CLEAR      9  -4  56 NW7       30.21R WCI  -3
DULUTH HARBOR  CLEAR     16  -2  45 CALM      30.27R
TWO HARBORS    CLEAR     12   0  57 NW5       30.19R WCI   4
SILVER BAY     CLEAR     10  -2  56 CALM      30.18R
GRAND MARAIS     N/A      9  -3  58 VRB5      30.21R WCI   1
G MARAIS ARPRT CLEAR      0  -8  71 W3        30.09R
$$
MNZ029>031-032-039>041-046>048-054>057-064-282300-
   West Central Minnesota

CITY           SKY/WX    TMP DP  RH WIND       PRES   REMARKS
FERGUS FALLS   CLEAR     12   0  57 N9        30.29R WCI   0
WHEATON        CLEAR      9   1  72 NW8       30.30R WCI  -4
MORRIS         CLEAR     16   9  73 NW9       30.23R WCI   4
ALEXANDRIA     CLEAR     18   2  49 N7        30.20R WCI   9
ELBOW LAKE     FAIR      15   3  60 N9        30.23R WCI   3
WADENA         CLEAR     12   0  57 N7        30.21R WCI   2
GLENWOOD       CLEAR     18   3  53 NE7       30.21R WCI   8
APPLETON       CLOUDY    18  10  73 NW10      30.24R WCI   6
BENSON         CLEAR     18   9  68 CALM      30.23R
ORTONVILLE     CLOUDY    12   5  73 N12       30.25R WCI  -2
MADISON        CLOUDY    19  12  73 N12       30.24R WCI   7
WILLMAR        FAIR      19  10  68 N7        30.22R WCI  10
$$
MNZ033>034-036-042>043-049>051-058-059-282300-
   Central Minnesota

CITY           SKY/WX    TMP DP  RH WIND       PRES   REMARKS
ST CLOUD       CLEAR     21   4  47 N8        30.22R WCI  11
SAUK CENTRE    FAIR      17   1  50 N7        30.21R WCI   8
PAYNESVILLE    CLEAR     17   8  66 N7        30.21R WCI   8
AITKIN         CLEAR     16   0  48 N5        30.21R WCI   9
PINE RIVER     CLEAR      9   0  66 N7        30.26R WCI  -3
BRAINERD       CLEAR     13  -2  51 N9        30.23R WCI   1
STAPLES        CLEAR     12  -2  52 N7        30.22R WCI   2
LONG PRAIRIE   FAIR      18   3  53 NW6       30.21R WCI   9
LITTLE FALLS   CLEAR     18   0  45 CALM      30.23R
LITCHFIELD     CLEAR     18  12  79 CALM      30.21R
BUFFALO        MOCLDY    21  11  66 N3        30.22R
MAPLE LAKE     CLEAR     20  10  65 N5        30.22R WCI  14
$$
MNZ037-044-045-052-053-282300-
   East Central Minnesota

CITY           SKY/WX    TMP DP  RH WIND       PRES   REMARKS
PRINCETON      CLEAR     18   1  49 N5        30.22R WCI  11
MORA           CLEAR     18  -2  41 N5        30.23R WCI  11
CAMBRIDGE      CLEAR     21   7  53 N5        30.21R WCI  15
RUSH CITY      CLEAR     17   3  53 N6        30.23R WCI   9
MOOSE LAKE     CLEAR     14  -2  48 N5        30.21R WCI   6
HINCKLEY       FAIR      18   1  49 CALM      30.23R
CLOQUET        CLEAR     10  -6  48 NW8       30.20R WCI  -1
MCGREGOR       CLEAR     12   0  57 N8        30.22S WCI   1
$$
MNZ071>073-080-081-089-090-097-098-282300-
   Southwest Minnesota

CITY           SKY/WX    TMP DP  RH WIND       PRES   REMARKS
MONTEVIDEO     CLOUDY    19  16  86 N10       30.24R WCI   8
GRANITE FALLS  CLOUDY    23  17  79 NW6       30.23R WCI  15
CANBY          MOCLDY    16  11  82 NW8       30.24R WCI   5
MARSHALL       CLOUDY    19  12  73 N15       30.21R WCI   5
REDWOOD FALLS  CLOUDY    25  18  74 VRB5      30.21R WCI  19
OLIVIA         CLOUDY    23  19  86 N7        30.20R WCI  15
PIPESTONE      CLOUDY    19  18  93 E9        30.15R WCI   9
WINDOM         CLOUDY    18  16  93 CALM      30.18R
WORTHINGTON    CLOUDY    18 -26  13 NE14      30.16R WCI   4
JACKSON        CLOUDY    21  18  86 N9        30.17R WCI  11
TRACY          MOCLDY    21  17  87 N8        30.19R WCI  11
SLAYTON        CLOUDY    19  18  93 N9        30.16R FOG     WCI   9
$$
MNZ065>067-074>077-082>085-091>093-282300-
   South Central Minnesota

CITY           SKY/WX    TMP DP  RH WIND       PRES   REMARKS
MANKATO        CLEAR     19  12  73 CALM      30.20R
NEW ULM        CLOUDY    18  18 100 CALM      30.20R
ST JAMES       FOG       18  16  93 N3        30.21R VSB 3/4
FAIRMONT       CLEAR     18  10  73 N9        30.18R WCI   6
GLENCOE        CLOUDY    24  19  82 CALM      30.20R
FARIBAULT      CLEAR     21  16  79 E5        30.20R WCI  15
OWATONNA       CLEAR     18  12  79 CALM      30.18R
ALBERT LEA     CLEAR     19  16  86 NE3       30.17R
$$
MNZ078>079-086>088-094>096-282300-
   Southeast Minnesota

CITY           SKY/WX    TMP DP  RH WIND       PRES   REMARKS
ROCHESTER      CLEAR     17  11  77 W6        30.17R WCI   9
RED WING       CLOUDY    21  14  73 CALM      30.21R
STANTON        CLOUDY    20  15  79 NE3       30.20R
DODGE CENTER   PTCLDY    18  14  86 CALM      30.17R
WINONA         CLOUDY    23  18  80 NW3       30.22R
AUSTIN         PTCLDY    19  14  79 CALM      30.17R
PRESTON        CLEAR     18  12  80 CALM      30.16R
$$
ABBREVIATIONS USED IN REMARKS
   TC - TEMPERATURES IN CELSIUS
  WCI - WIND CHILL INDEX
   HX - HEAT INDEX
  VSB - VISIBILITY
$$


USA.gov is the U.S. government's official web portal to all federal, state and local government web resources and services.